Helicity
82 99 153 152 155 182 194 242 255 174 132 231 170 153 175 155 162 265 286 284 274 243 217 214 212 165 126 67 70 121 98 100 82 107 89 80 74 65 73 69 74 74 60
79 96 110 141 179 198 229 218 202 155 120 168 185 194 115 180 173 281 170 224 265 239 220 200 201 173 147 119 126 145 146 119 77 105 120 87 84 82 93 86 81 80 64
90 100 91 120 179 182 195 227 199 188 133 84 184 137 216 137 209 235 334 233 217 253 223 207 209 191 154 146 136 146 144 150 101 97 114 120 78 118 102 92 84 74 73
58 59 75 118 144 176 192 210 197 201 164 141 163 113 180 124 167 261 201 395 280 294 263 236 226 222 191 186 150 152 147 171 143 159 130 124 105 123 117 82 86 88 61
65 89 83 88 138 149 219 190 155 164 143 159 127 145 163 176 171 317 425 338 304 254 298 271 255 237 234 186 181 154 135 160 168 182 191 167 159 156 131 120 82 86 56
-15 32 58 50 96 135 138 153 132 121 105 151 111 96 99 180 417 457 506 352 342 329 281 253 223 258 226 200 181 162 155 155 172 179 168 164 153 105 124 141 98 70 81
-67 -41 7 40 50 86 99 124 66 60 72 92 90 134 189 403 274 314 315 293 322 347 316 299 276 253 218 211 200 184 173 166 168 177 149 155 127 113 141 152 108 93 94
-38 -52 -49 -55 -52 9 62 88 52 15 62 112 96 115 83 391 448 364 344 344 318 331 339 323 270 238 230 223 217 227 213 202 193 184 178 161 119 114 116 105 102 100 92
-36 -43 -28 -53 -15 21 31 49 10 34 48 29 63 83 158 308 250 254 277 288 326 376 364 299 263 252 249 228 244 248 230 224 226 209 166 168 127 103 63 87 103 86 73
-61 -41 -28 -16 -42 -30 -13 24 61 -10 -15 -42 -32 105 55 180 215 253 276 285 323 322 294 286 268 263 259 256 262 261 255 242 231 221 213 154 164 136 117 143 129 121 78
-24 -36 -75 -104 -109 -78 -63 38 43 36 2 -4 -64 -22 71 20 86 174 177 252 284 255 270 281 261 259 276 272 272 254 264 246 244 250 205 185 158 177 144 153 124 136 112
-24 -0 -27 -56 -102 92 70 60 43 52 55 57 57 35 5 142 188 243 199 202 222 213 219 236 243 283 289 253 280 282 272 262 285 288 293 166 184 260 202 151 115 131 124
12 -70 -83 39 68 61 32 -4 -9 29 6 109 214 209 94 154 199 195 203 169 201 210 178 192 204 242 243 240 254 279 268 292 307 270 284 242 206 274 196 82 154 144 130
180 284 104 144 153 105 105 91 -25 3 39 72 130 128 52 16 137 168 216 152 189 201 136 136 161 204 259 273 318 300 269 286 272 276 220 186 172 243 292 224 134 145 139
407 419 423 297 251 213 158 177 269 82 93 98 78 65 99 86 123 87 46 37 93 162 192 227 202 235 254 276 261 261 320 398 369 254 256 212 235 324 324 173 159 161 160
471 485 481 406 287 244 189 204 151 181 139 93 71 28 59 69 52 49 61 80 108 109 95 98 100 116 213 130 153 219 308 367 389 303 197 347 285 209 188 176 151 146 141
491 572 398 383 269 279 155 96 69 84 83 97 78 40 52 61 35 59 49 69 -8 -10 61 42 37 33 126 -11 105 202 328 372 457 533 457 341 215 186 211 187 161 145 127
247 244 172 151 151 113 121 109 115 88 78 75 39 56 20 14 11 37 38 46 74 73 67 76 104 96 88 106 109 168 222 310 320 203 211 199 195 189 206 204 196 173 158
163 166 118 104 105 95 49 26 51 53 75 59 54 28 10 27 50 53 55 84 85 89 90 70 70 82 65 107 145 119 146 117 118 128 143 181 195 152 141 200 196 178 162
68 63 89 71 71 78 40 59 92 90 82 50 25 8 6 14 41 27 12 15 49 63 67 78 81 74 79 102 67 139 134 134 159 151 143 135 144 127 158 163 166 142 124
58 86 64 35 78 100 29 55 56 73 34 27 41 65 75 71 64 49 43 59 41 30 53 63 61 73 54 26 80 66 92 111 111 113 135 149 112 121 114 126 133 131 139
24 34 32 38 54 47 10 14 40 20 14 21 49 65 66 74 88 99 107 102 97 119 111 77 96 63 60 41 34 34 67 86 108 137 150 177 136 145 142 155 145 151 146
15 12 18 7 26 41 21 35 36 11 34 46 35 57 61 77 77 81 96 104 116 112 108 118 137 135 123 88 50 27 45 90 116 127 121 102 99 142 175 162 147 120 170
8 -4 -16 -15 -6 9 17 14 23 19 44 49 60 81 76 67 77 69 80 87 99 109 125 130 131 116 101 96 88 97 110 98 129 133 134 140 168 193 206 220 185 186 173
-4 -25 -53 -56 -52 -44 -35 -21 -7 -3 -9 9 35 69 86 103 107 107 113 112 107 106 106 109 116 128 135 113 88 71 87 100 120 156 206 237 264 267 256 253 238 233 209
12 31 28 31 20 13 -0 -2 -0 5 -10 -22 -37 -9 25 57 79 96 114 134 141 147 147 140 122 109 85 82 87 92 106 69 59 119 172 181 191 212 244 237 217 219 212
Wind_Speed
100 97 100 98 94 93 97 96 92 87 76 74 73 64 62 55 64 66 78 67 65 62 55 50 46 43 39 35 29 24 20 18 12 10 17 22 26 25 25 24 26 28 25
91 94 97 102 95 94 94 96 94 91 85 78 75 72 62 65 71 65 86 68 72 66 59 54 51 47 44 39 32 27 24 21 13 17 17 23 28 26 26 28 30 30 25
79 82 87 93 89 90 90 87 88 89 88 82 75 71 69 65 77 80 80 68 74 71 61 57 54 52 47 42 37 32 27 23 19 17 21 26 30 23 28 30 33 29 26
61 69 72 74 74 80 82 82 81 82 88 81 80 78 81 80 73 83 71 73 75 73 65 60 57 56 51 47 41 35 31 25 22 22 27 29 25 26 28 31 31 28 35
33 57 64 65 65 67 70 72 75 77 84 87 82 76 77 74 83 87 93 71 69 73 63 59 59 58 55 49 44 39 34 29 27 26 26 27 30 28 32 33 33 34 37
41 19 48 64 58 59 65 70 73 76 79 81 75 70 69 70 73 67 87 70 78 70 64 61 61 59 57 52 46 43 39 33 30 29 25 27 29 31 35 35 39 39 37
49 62 68 62 55 53 55 66 77 83 84 94 86 75 70 75 77 63 69 76 68 69 67 64 63 60 58 54 49 45 41 36 33 31 26 27 27 34 34 35 42 37 37
56 58 65 70 72 79 79 71 78 81 86 81 69 79 79 71 73 69 68 71 67 67 66 65 65 62 56 54 51 47 44 38 36 32 27 27 30 31 31 39 41 37 37
54 53 57 64 70 75 78 78 80 78 77 73 75 72 66 64 61 63 66 62 56 60 63 65 65 61 58 55 52 50 46 40 37 32 28 29 29 27 30 36 37 32 43
55 59 62 68 68 69 68 64 62 67 68 60 62 68 64 69 62 62 65 62 58 56 59 63 62 59 57 55 54 50 47 42 39 35 28 24 27 26 31 35 29 38 48
51 59 62 64 64 64 68 40 50 41 63 69 72 67 60 58 45 52 55 60 54 53 58 61 60 59 58 57 55 52 48 45 40 35 30 26 24 30 36 31 32 37 48
52 58 54 55 61 71 19 35 25 25 37 58 47 47 60 49 44 57 52 48 48 49 54 57 61 58 60 58 55 56 51 47 44 37 31 28 30 31 38 39 32 41 47
35 50 56 57 61 50 16 18 18 22 17 11 6 15 12 29 32 41 45 40 43 44 47 47 51 55 55 58 53 55 52 47 39 34 31 31 28 36 33 46 37 40 45
29 42 75 34 25 20 15 7 4 10 15 27 19 3 4 7 12 25 31 45 46 46 48 52 55 55 57 56 56 49 46 40 35 37 36 33 34 38 42 43 44 44 47
30 41 42 49 30 37 23 22 26 12 31 32 14 7 3 3 11 9 19 32 25 33 40 45 52 49 45 43 46 46 43 43 41 40 40 41 48 46 37 41 38 36 44
41 34 29 28 25 23 20 23 21 14 16 15 22 24 6 2 7 16 16 21 27 37 51 52 49 31 45 35 38 41 45 52 48 48 51 50 39 30 22 29 38 40 44
31 32 28 31 26 27 32 37 37 37 38 35 43 43 40 36 34 27 29 17 19 14 9 5 4 19 52 20 68 56 56 56 53 49 44 43 37 24 25 31 37 42 45
26 23 23 29 22 18 22 23 30 38 37 43 45 42 41 38 36 31 28 26 24 24 25 24 29 34 44 48 53 48 47 49 43 35 26 28 35 29 29 32 38 44 47
28 19 15 14 18 27 28 36 48 48 42 42 40 37 35 31 27 28 29 26 28 30 34 33 37 40 39 43 42 39 38 38 43 37 38 35 32 32 31 35 41 45 48
16 26 17 23 43 44 44 46 43 43 41 39 37 36 34 33 31 29 28 28 29 31 33 35 38 41 42 42 45 44 42 46 49 48 40 37 36 35 36 37 39 44 45
10 8 9 33 27 11 54 53 51 50 49 46 42 40 39 37 35 34 34 33 33 34 37 39 40 43 45 47 47 49 49 48 51 52 49 46 43 40 38 41 41 43 39
34 34 36 24 22 27 58 59 60 51 52 51 50 48 45 43 42 41 43 43 44 46 47 50 51 51 52 53 53 57 56 57 61 62 57 54 48 46 44 44 43 41 39
31 31 19 3 17 11 14 57 55 50 53 53 49 47 46 45 44 41 40 41 44 46 48 52 57 61 61 59 59 63 66 66 65 62 54 48 48 48 49 48 47 45 44
24 26 42 43 52 52 51 54 53 51 50 46 49 51 48 45 45 44 43 41 43 47 50 53 56 61 62 63 64 66 66 68 68 68 67 64 57 54 53 52 50 49 47
35 35 39 38 39 40 43 46 48 47 48 50 46 47 47 47 46 45 48 49 48 50 55 57 56 59 63 60 61 65 67 66 64 63 62 62 60 60 58 56 54 53 51
29 30 30 30 30 33 38 44 44 46 46 49 50 50 49 49 48 49 49 50 53 53 53 54 54 55 51 58 61 63 65 65 64 64 71 73 70 71 70 68 65 58 55
Wind_Direction
269 266 264 263 258 255 250 248 248 248 250 249 249 249 248 247 250 240 234 228 226 223 223 224 220 218 222 220 214 228 230 248 254 282 302 314 319 328 338 346 352 351 3
268 266 264 261 257 253 250 246 245 246 247 249 249 252 252 249 248 238 238 224 222 222 222 222 220 220 227 220 215 218 236 251 232 274 292 303 313 323 330 333 334 338 356
271 267 264 262 254 251 247 243 242 245 244 245 248 250 250 249 240 238 233 224 222 222 222 222 223 224 224 217 219 221 224 237 243 263 293 302 306 317 322 327 326 339 351
275 271 268 262 254 250 245 244 245 247 243 242 244 244 245 245 242 228 230 227 223 224 224 223 225 223 224 224 224 226 228 233 234 265 281 302 313 312 319 319 327 336 326
280 276 267 263 259 248 242 243 246 247 243 241 240 243 244 244 240 223 223 223 219 222 221 222 224 223 225 227 229 228 230 237 245 257 273 294 300 310 314 320 323 321 320
203 212 273 256 255 248 243 245 246 246 240 237 236 238 238 231 228 212 215 220 219 221 223 222 223 224 227 229 230 234 238 240 249 258 268 279 292 298 306 315 312 311 312
212 219 239 254 255 250 247 245 242 235 230 224 226 234 237 220 214 206 208 212 218 223 224 222 224 227 230 234 233 235 239 241 247 254 264 277 287 300 305 308 301 313 307
236 222 219 207 200 218 228 235 225 222 219 218 227 227 226 217 218 217 216 218 221 225 225 225 227 230 232 233 233 237 241 244 251 255 264 272 286 296 307 299 298 307 304
224 216 200 188 194 204 204 215 216 216 212 220 226 225 229 231 223 224 222 224 225 225 224 226 227 231 231 231 232 238 241 245 249 255 263 271 284 293 305 301 300 307 301
211 200 187 190 191 200 203 209 211 210 210 216 220 228 236 241 234 229 226 228 226 223 222 226 228 230 230 232 235 240 243 244 250 255 257 268 278 291 299 300 305 298 292
194 186 184 181 185 193 184 203 205 214 210 216 220 224 238 232 216 227 228 227 224 222 224 227 229 229 230 233 238 241 242 247 249 253 257 263 268 289 293 298 298 295 286
167 174 177 179 177 175 151 185 201 227 226 200 228 240 236 240 235 224 228 227 224 224 226 228 230 230 234 236 238 242 243 244 249 253 254 255 271 292 289 289 290 289 284
161 164 158 158 157 159 157 200 220 211 219 236 34 230 286 217 209 214 223 227 228 227 229 227 229 233 236 241 242 242 245 245 244 244 247 256 264 284 290 283 281 283 283
135 145 126 89 90 74 72 28 142 58 63 55 66 157 129 106 171 222 230 243 240 237 238 242 242 242 243 242 242 240 240 236 234 247 254 252 266 281 284 277 271 278 281
108 115 122 132 103 63 61 54 82 64 74 64 51 55 91 147 224 271 259 245 247 245 241 248 248 244 242 238 236 236 232 238 247 251 260 270 281 281 266 260 268 273 280
81 77 79 74 79 70 70 72 60 60 71 43 41 43 69 157 340 283 294 274 270 258 248 256 259 222 256 247 229 241 242 249 252 252 268 274 274 270 247 259 268 275 279
57 73 65 52 68 47 45 47 45 47 48 42 47 51 55 48 47 34 44 317 36 47 10 324 316 273 270 265 264 267 261 259 261 260 256 269 253 255 265 270 275 280 286
46 48 44 35 52 55 40 36 32 36 36 41 45 45 49 51 48 33 21 17 346 323 303 307 295 289 282 280 278 277 275 269 263 262 257 247 254 262 265 271 280 285 289
99 89 45 54 36 28 23 31 39 39 31 30 28 27 27 20 6 2 360 335 336 323 300 308 299 289 295 284 286 282 279 273 268 262 261 263 265 266 270 277 282 287 292
24 18 20 19 24 23 24 28 23 22 21 18 18 15 12 11 1 353 348 342 336 327 317 309 303 299 293 294 286 287 283 276 272 270 273 274 270 272 276 279 282 287 291
80 87 35 18 13 37 35 32 31 27 30 27 20 8 360 357 352 343 336 328 325 318 313 306 306 302 294 294 295 290 286 284 280 277 278 278 275 271 276 284 285 290 293
120 118 116 118 117 118 77 72 54 75 59 46 34 28 21 10 355 342 331 324 317 310 306 301 300 297 294 288 289 286 286 284 280 280 281 281 279 275 278 282 285 289 292
124 121 125 53 127 1 87 34 44 56 32 24 35 31 23 13 5 5 358 347 334 322 315 310 302 297 295 293 289 286 283 283 283 285 286 283 279 279 280 281 285 287 291
140 134 100 93 58 58 55 32 25 27 27 27 15 9 8 5 357 354 351 350 345 334 324 317 311 305 303 300 296 293 291 288 285 284 282 279 280 280 280 282 284 285 286
108 99 85 84 75 67 58 45 34 29 24 19 17 11 5 359 354 352 347 341 339 334 325 320 317 312 307 306 303 299 296 294 293 290 287 284 282 281 280 281 283 284 284
100 90 86 77 71 57 42 31 27 18 15 11 7 3 359 354 350 345 342 339 333 332 331 328 322 317 316 309 305 304 302 299 296 292 288 284 281 279 278 279 281 282 281